Dewpoint
53 53 54 53 54 54 54 54 54 55 55 55 55 54 55 56 56 56 56 56 56 56 56 57 56 56 56 56 56 56 56 54 52 49 45 47 52 56 58 66 67 66 65 63 57 52 49 48 46 49 52 57 60 60 61 60 58 55 57 55 53 55 52 52 51 48 46 52 50 52 53 52 55 53 47 51 53 53 55 57 58 61 61 62 61 62 63 65
53 53 53 53 53 53 53 53 53 54 54 54 55 55 55 55 55 56 56 56 56 56 56 56 56 56 55 56 56 56 55 53 51 49 48 49 59 61 62 62 65 69 65 54 45 52 48 48 47 48 51 54 58 58 59 56 56 51 50 52 51 52 53 54 52 48 51 47 50 50 50 51 47 49 53 52 51 51 50 55 58 60 60 62 62 62 63 64
53 53 53 53 53 53 53 53 54 54 55 55 55 55 55 56 56 56 56 56 56 56 57 56 56 55 55 55 56 57 54 50 48 46 47 63 63 62 63 65 66 71 59 48 41 45 48 48 47 48 49 51 55 56 57 55 54 52 49 53 52 52 53 52 50 48 48 48 49 49 49 47 51 51 54 49 50 51 53 54 59 60 60 60 61 62 62 63
53 53 53 53 53 53 54 53 53 54 55 55 55 55 55 55 56 55 56 56 56 56 56 56 55 55 55 56 56 55 53 50 46 44 43 65 66 66 63 65 68 72 54 46 41 37 42 45 46 46 46 47 50 54 54 53 49 50 49 46 51 52 51 51 50 48 48 49 49 48 49 47 52 50 52 50 49 52 54 56 58 59 60 61 62 61 62 62
53 53 53 53 53 53 54 54 54 55 55 55 55 55 55 55 55 56 56 55 56 56 56 56 55 56 56 57 57 54 50 44 36 32 46 74 73 67 65 66 69 61 49 44 40 36 35 36 42 43 43 44 47 52 52 51 48 47 48 48 46 53 51 51 49 48 47 48 48 49 50 45 46 52 51 51 50 51 53 57 58 58 59 60 60 61 61 60
53 53 53 54 54 54 54 54 54 54 54 55 55 55 55 55 55 55 55 56 56 56 56 56 56 56 56 57 55 52 47 23 36 33 73 72 72 69 67 66 70 54 45 39 36 35 34 33 34 39 40 42 46 48 50 49 48 43 46 47 46 52 49 48 47 47 47 47 46 47 50 48 50 51 53 52 51 51 54 57 58 58 58 60 60 60 60 59
53 54 53 53 54 54 54 55 54 55 54 55 55 56 55 55 55 55 55 55 56 56 56 56 56 57 56 57 53 50 45 39 42 47 71 71 70 70 68 67 71 49 42 36 33 32 34 34 36 38 39 41 44 48 49 48 47 44 44 45 45 51 48 47 47 49 48 48 47 48 44 43 48 48 51 50 50 52 53 58 58 59 59 59 60 60 60 59
53 53 53 54 54 54 55 55 55 55 55 55 55 56 55 55 55 55 55 55 56 56 57 57 57 57 58 52 50 45 43 37 38 39 67 72 69 68 66 62 59 45 38 33 30 28 30 33 37 40 39 41 44 47 48 45 45 43 43 45 46 45 46 45 45 46 48 48 48 50 45 46 44 45 46 47 53 53 55 58 58 58 58 57 58 59 59 60
54 54 54 54 54 54 55 55 54 55 55 55 55 55 55 55 55 55 55 56 56 56 56 57 57 57 57 52 48 40 37 40 39 37 64 65 62 63 57 56 53 42 34 30 28 27 27 32 38 40 39 42 45 45 46 43 40 42 43 45 45 44 44 46 45 45 47 46 46 47 45 45 45 46 45 50 52 53 57 58 58 58 58 57 57 58 59 60
54 54 54 54 54 54 54 55 55 55 55 55 55 55 55 55 55 55 56 55 56 56 56 57 58 58 55 52 45 35 34 38 40 41 55 52 60 55 51 50 48 39 33 30 28 27 26 31 39 42 41 42 44 44 42 41 39 42 43 43 43 43 43 45 45 46 46 45 46 45 42 39 40 43 46 47 50 53 57 57 58 58 58 57 57 58 58 60
54 54 54 54 54 54 54 54 55 55 54 55 54 54 54 55 55 55 55 55 55 56 56 57 58 57 53 50 43 33 36 35 36 40 45 49 54 50 46 44 44 38 34 31 30 28 27 29 41 42 40 38 40 40 41 39 38 37 37 42 42 42 43 42 46 46 46 45 46 46 44 39 37 40 47 48 51 53 56 57 57 58 57 57 58 58 59 59
53 53 53 54 54 54 54 54 54 54 54 54 54 54 54 55 54 54 54 54 55 56 57 58 57 56 53 50 43 36 36 34 36 40 41 45 46 45 42 38 41 38 34 31 30 30 27 29 39 41 36 39 37 40 40 40 38 36 36 35 38 40 40 41 41 41 46 46 47 47 42 38 36 35 48 49 51 53 54 56 57 58 58 58 58 58 59 59
53 53 53 53 54 53 54 54 54 54 54 54 54 54 54 54 53 54 54 54 55 55 57 58 58 56 52 46 46 45 42 40 38 37 37 39 40 39 36 34 38 37 35 32 30 30 29 31 39 40 37 38 39 38 43 41 39 37 36 35 34 35 37 39 38 38 44 43 43 42 37 35 32 35 48 49 50 52 53 54 55 57 57 57 58 58 59 59
53 53 53 53 53 54 54 54 54 54 53 53 54 53 53 53 53 54 54 55 56 57 58 58 57 54 51 46 44 42 44 43 42 40 39 39 35 36 35 31 37 36 34 33 33 33 32 36 40 40 37 35 36 41 39 38 35 33 34 36 34 35 34 37 38 36 36 39 40 40 36 32 32 33 48 49 49 50 52 52 53 55 56 57 58 57 59 59
53 54 53 53 53 54 54 54 53 53 53 53 52 52 52 51 53 54 55 56 57 58 59 59 56 53 50 48 49 48 61 54 47 42 40 37 32 30 32 31 33 31 30 31 34 39 41 41 40 37 33 33 32 32 34 34 32 31 31 31 34 35 36 37 38 35 35 37 40 39 34 33 32 34 46 48 49 50 51 52 53 54 55 56 57 57 58 58
53 53 53 53 53 54 53 53 52 53 53 52 51 51 52 53 55 57 56 56 57 59 58 55 53 53 49 46 41 46 50 48 45 45 42 39 32 32 29 30 31 34 31 30 32 34 38 38 36 34 30 28 27 29 31 31 31 30 31 30 32 35 35 35 36 35 34 35 37 36 32 32 32 35 44 46 48 48 49 51 52 52 54 54 57 57 58 58
53 53 53 54 54 53 53 52 52 53 51 51 51 51 52 54 56 56 56 56 57 57 53 51 52 53 43 44 46 37 34 44 44 40 39 39 33 30 30 28 29 31 33 33 32 33 33 33 32 28 26 23 24 27 28 28 28 29 30 29 29 32 35 34 34 32 32 32 33 34 32 31 30 35 43 45 48 48 47 49 50 51 53 53 58 58 57 58
53 53 53 54 54 53 53 52 52 51 51 50 50 50 48 52 56 56 56 57 54 54 52 51 49 47 46 48 45 40 32 33 39 37 36 34 32 30 29 25 26 28 30 30 32 31 32 31 28 22 21 21 21 24 25 25 27 29 28 27 26 26 28 32 30 29 28 31 30 33 32 30 32 40 42 44 47 47 48 49 50 50 52 53 57 57 57 57
53 53 54 54 53 53 53 52 51 51 50 51 51 50 50 56 52 47 44 52 47 46 48 48 49 34 18 36 36 35 35 38 35 36 31 28 30 30 29 29 24 26 26 25 26 28 30 30 30 25 20 20 20 22 23 24 27 28 29 24 24 24 24 25 28 28 26 30 30 30 30 29 31 38 41 43 45 47 48 49 49 50 52 53 56 56 56 57
53 54 54 53 52 52 52 52 51 50 49 48 46 44 40 21 23 43 39 21 23 23 18 16 28 41 36 30 30 34 34 28 30 34 32 27 28 27 26 30 25 26 26 24 24 26 28 28 28 27 24 21 21 22 22 22 24 28 29 25 23 23 23 25 25 26 26 29 30 30 30 29 31 37 40 43 42 46 49 49 50 51 51 51 55 56 56 57
54 53 53 53 52 52 52 51 50 49 50 47 46 41 17 17 17 16 19 21 23 25 25 25 24 21 14 15 19 22 21 22 23 29 32 30 25 25 26 34 33 30 28 26 25 28 28 27 28 29 28 25 22 21 21 21 21 22 25 25 22 23 22 23 23 25 25 26 30 31 30 31 32 34 41 42 41 49 50 50 51 52 51 52 53 55 55 57
53 53 53 52 52 51 51 51 50 49 49 48 44 25 18 17 19 19 22 23 25 25 24 23 23 22 22 21 20 21 20 19 18 20 27 26 24 27 30 34 33 30 30 29 30 29 27 26 27 29 30 28 26 23 21 20 19 21 23 25 24 20 22 23 23 23 24 25 29 30 30 30 31 31 41 41 40 49 50 51 51 51 52 53 53 55 56 57
53 53 53 52 51 51 50 50 49 49 49 47 37 20 18 18 19 21 24 24 23 26 26 26 25 23 20 20 20 18 15 17 17 18 23 26 25 26 25 28 28 30 31 32 30 29 27 26 27 29 30 29 28 26 22 20 20 21 24 25 23 21 18 18 21 22 22 24 26 31 28 29 30 31 40 41 41 47 50 50 51 51 52 53 53 54 56 57
53 53 53 52 51 50 51 49 49 44 43 38 33 20 21 21 20 22 23 22 22 24 25 24 25 25 24 21 20 17 13 16 18 17 24 25 24 24 18 19 23 26 27 29 29 28 27 29 28 28 30 30 28 26 25 22 20 21 24 26 24 20 18 17 20 21 22 22 25 28 29 30 29 28 37 40 42 42 49 50 50 51 53 54 53 55 56 57
53 53 53 52 50 50 48 48 36 31 36 38 21 23 23 24 23 25 24 24 25 25 31 29 27 21 23 25 18 9 9 12 16 19 24 23 22 21 18 19 23 25 28 29 28 28 27 29 30 28 28 28 27 25 25 26 25 24 25 26 23 19 17 17 18 19 20 21 25 26 28 29 31 29 30 39 39 40 48 47 48 52 53 53 53 55 57 58
53 52 53 51 51 50 48 38 30 36 38 30 23 24 24 24 24 27 23 23 25 29 29 23 25 21 20 19 21 10 10 11 16 17 22 22 25 21 21 18 21 22 28 29 28 27 27 29 28 26 26 25 26 26 27 27 25 25 25 26 24 19 17 17 17 15 21 22 23 24 25 31 31 28 29 36 37 39 46 46 47 51 53 52 53 56 56 58
52 52 51 50 50 49 39 29 35 39 36 29 24 24 24 24 32 26 24 25 27 27 19 26 25 16 19 18 19 8 1 4 16 17 19 28 20 21 20 19 18 18 24 28 29 26 29 29 28 24 22 22 24 25 26 25 23 20 20 20 19 17 17 18 17 14 17 21 22 21 22 26 30 27 29 31 37 39 44 44 47 50 52 52 53 56 56 58
52 51 50 50 49 49 44 41 42 38 36 29 24 24 25 27 30 26 29 21 15 16 14 18 20 24 16 17 16 4 4 9 12 16 19 24 23 17 18 19 17 15 17 23 22 27 29 29 28 25 20 20 21 24 23 22 20 17 17 17 16 16 16 17 17 15 13 17 21 20 22 24 27 32 29 27 31 44 42 42 45 50 53 54 54 55 55 56
51 51 50 50 49 48 48 46 42 38 38 25 23 23 24 27 24 26 27 24 22 15 21 17 24 19 18 15 11 5 2 10 9 13 18 21 25 19 15 16 17 15 15 16 19 23 26 27 27 25 21 17 20 21 20 18 16 15 15 18 18 17 16 16 15 13 15 20 20 24 21 22 26 31 30 29 25 39 41 44 46 52 53 54 54 54 55 55
51 51 50 49 47 44 40 41 39 40 29 22 23 25 25 25 27 24 25 23 13 12 18 18 16 14 16 17 9 5 2 1 3 13 16 18 21 24 21 17 15 13 12 13 14 17 20 29 29 22 19 18 20 20 18 16 15 16 15 15 16 15 15 17 15 18 22 15 18 17 15 16 23 28 29 27 25 31 44 47 49 53 53 53 54 54 55 56
50 50 49 49 45 42 41 39 33 34 29 24 23 23 23 25 23 20 12 14 13 13 13 14 13 13 13 14 16 17 6 4 4 6 10 17 19 23 23 15 15 13 11 11 11 13 15 17 23 21 20 17 18 21 21 19 16 17 17 16 16 16 20 18 16 17 14 13 19 15 12 12 15 27 27 28 28 31 47 48 50 52 53 53 54 55 56 57
49 48 49 48 47 47 42 38 37 40 28 23 22 22 22 16 22 21 12 14 9 16 14 12 11 10 11 13 13 17 19 13 9 10 10 13 15 20 22 20 14 13 13 12 10 12 12 14 17 20 27 17 16 16 19 20 19 18 18 17 14 21 15 15 18 12 10 12 18 10 10 9 13 20 31 28 29 28 45 49 51 52 52 53 54 56 57 56
48 48 48 49 49 47 45 44 45 38 21 20 24 22 19 19 13 10 5 10 11 15 15 16 13 10 10 11 13 16 18 18 16 14 16 13 12 18 22 22 19 16 15 15 11 12 13 16 17 18 19 23 17 14 16 16 17 17 17 16 13 15 12 13 16 15 16 14 8 10 13 8 23 17 20 26 26 25 27 35 52 52 52 54 55 56 56 56
48 48 47 48 47 47 45 47 43 31 19 26 24 21 19 14 12 19 15 16 15 17 15 15 13 10 10 10 11 14 15 14 17 18 18 16 12 14 20 22 22 19 17 17 10 10 13 14 16 17 17 19 18 16 16 16 15 15 16 14 15 15 15 12 13 10 12 22 9 5 10 9 7 14 26 22 27 23 28 41 52 52 53 55 55 55 55 55
48 47 48 46 44 45 47 47 38 23 24 26 24 21 16 17 13 16 15 16 16 16 14 14 11 9 9 9 10 12 12 10 13 14 16 14 12 13 18 21 22 22 18 14 16 14 11 15 18 18 18 18 17 18 18 17 14 14 15 14 16 14 20 16 18 15 21 21 21 10 6 17 14 23 21 26 20 21 22 50 52 51 53 54 54 54 54 55
46 45 45 44 42 36 37 23 27 24 27 27 23 24 17 16 14 14 13 15 16 15 14 11 11 8 8 10 10 11 13 12 12 14 16 16 12 14 16 20 22 23 21 17 20 13 14 12 15 17 18 17 17 18 17 18 14 13 12 11 12 16 14 22 32 20 26 23 17 31 23 13 14 13 21 16 19 20 21 43 52 52 53 53 54 54 55 56
45 45 44 44 44 38 35 25 22 27 30 27 23 18 18 13 14 12 17 12 14 14 12 10 10 7 6 7 8 9 10 11 13 16 14 16 15 18 17 17 24 23 23 23 19 17 16 14 15 16 15 17 17 18 17 18 18 11 10 11 16 18 16 16 18 26 16 14 18 13 13 18 10 13 12 15 16 16 17 22 48 51 53 53 53 55 56 56
46 45 46 46 45 44 30 36 25 36 27 26 23 24 11 7 10 9 10 12 11 11 11 12 11 8 6 7 8 11 13 9 16 19 17 18 16 27 26 26 26 27 25 24 22 20 18 16 17 16 16 16 17 17 16 17 19 13 10 15 12 12 9 18 25 16 18 15 14 13 10 14 14 20 12 10 11 15 16 17 19 50 52 52 53 54 56 56
45 42 38 32 27 23 23 41 31 28 26 24 21 17 12 8 9 11 12 9 9 9 10 12 12 12 11 11 13 13 13 12 18 18 17 19 19 24 27 27 26 27 28 28 24 21 21 18 18 19 16 16 15 15 15 15 17 18 16 13 14 15 14 21 15 20 22 23 17 16 13 12 17 16 12 10 11 12 15 16 17 49 50 50 52 53 54 54
42 41 39 30 24 37 33 26 23 28 25 23 14 12 9 10 9 12 12 11 8 8 8 11 12 12 12 11 12 13 14 16 17 18 18 17 18 28 27 30 29 28 28 28 25 27 24 21 19 20 18 15 14 15 14 16 15 16 16 13 12 14 14 16 21 11 23 24 25 23 19 25 30 26 14 13 13 15 16 28 18 49 49 49 51 52 53 54
43 41 38 36 34 31 24 22 20 22 22 18 13 11 12 10 6 7 11 12 8 11 11 10 10 10 9 11 14 14 16 17 18 18 19 20 24 29 29 28 29 27 28 27 27 28 30 28 22 20 19 14 13 15 15 15 16 16 16 15 10 9 11 8 14 12 10 19 19 23 23 33 28 24 26 15 16 16 17 28 25 47 49 49 50 51 51 52
39 34 33 36 38 39 23 18 19 22 16 15 13 11 13 26 13 9 11 11 10 11 12 14 15 12 11 13 13 13 14 16 18 18 19 19 26 25 27 30 28 29 27 26 32 29 33 36 30 21 19 18 14 15 16 16 16 17 16 15 13 9 12 13 15 17 12 11 13 22 22 33 42 33 36 22 19 17 17 21 35 44 48 49 49 50 50 52
38 37 40 41 40 36 21 20 25 23 17 17 17 16 17 15 12 12 12 13 11 11 12 12 12 13 14 13 12 12 15 17 18 17 19 22 29 30 29 29 30 28 28 29 34 30 44 34 31 26 26 23 21 16 16 18 17 17 17 16 14 10 10 14 20 25 15 17 12 16 25 29 36 38 39 23 22 19 18 15 34 47 47 48 47 48 49 51
40 40 39 40 35 30 24 19 20 18 19 17 17 16 19 17 14 12 12 16 14 15 13 12 13 14 13 13 14 14 16 16 18 20 24 26 28 30 30 29 27 27 28 33 37 38 30 33 36 34 31 27 25 22 16 18 19 18 17 16 15 13 12 13 18 31 20 16 12 18 16 24 37 47 33 30 25 21 22 22 33 45 46 47 45 46 46 50
42 38 37 36 35 33 25 22 18 18 19 19 19 20 20 18 16 15 15 14 15 15 14 13 14 14 13 15 15 16 17 18 19 21 26 28 27 30 29 28 26 26 26 35 44 33 30 31 34 33 30 25 23 24 19 18 18 18 19 17 15 12 13 13 12 28 17 33 23 19 21 31 35 39 36 34 35 23 23 22 27 36 48 46 45 45 46 49
33 33 36 36 37 34 30 32 27 22 22 23 22 22 20 20 21 18 17 19 18 17 17 17 14 11 14 17 17 17 17 19 20 22 29 30 29 28 28 27 25 25 37 43 40 31 30 31 32 33 33 32 35 38 37 31 18 16 16 17 14 13 11 17 22 27 20 37 26 32 33 32 32 26 35 36 38 29 29 23 39 45 47 48 47 47 47 51
36 34 35 35 37 33 33 34 33 31 27 23 23 23 22 22 21 19 22 20 18 17 16 14 16 18 20 21 19 18 19 18 21 24 26 28 28 27 29 27 26 29 43 37 36 28 29 29 30 36 37 34 33 33 30 31 23 16 16 15 14 12 11 13 16 17 35 32 25 37 42 28 33 31 39 39 31 35 38 42 51 53 56 51 49 50 57 51
34 35 35 40 37 33 34 33 34 34 34 26 25 25 25 23 21 21 22 20 20 20 23 23 19 21 20 21 20 19 20 20 21 21 25 28 28 29 28 28 25 33 34 27 29 27 27 27 29 29 28 29 29 29 30 29 28 19 16 15 15 11 11 10 21 27 28 28 27 43 38 37 31 32 35 42 44 34 32 45 47 49 53 55 49 49 48 48
38 37 35 38 35 35 35 35 35 35 32 28 29 26 25 24 23 24 23 19 19 19 24 23 21 21 23 22 22 21 25 18 18 25 25 26 27 29 28 27 26 26 24 24 26 27 25 26 29 27 27 29 29 29 29 28 28 28 27 17 16 13 10 10 12 20 21 34 37 46 45 29 25 32 31 41 42 34 36 46 45 45 48 53 49 48 46 46
37 36 36 39 38 36 35 35 34 32 31 34 29 27 27 26 24 24 31 26 22 22 23 21 22 21 20 21 25 22 21 20 20 20 23 25 25 28 28 27 25 25 24 23 24 25 24 26 31 25 28 29 29 29 29 28 28 28 28 27 18 15 10 9 9 11 33 23 17 34 43 37 38 30 37 39 39 41 43 45 42 44 45 48 49 47 46 46
42 40 43 38 35 34 36 35 34 33 35 33 31 31 31 30 30 30 29 26 23 23 25 23 22 23 21 21 22 22 23 24 24 22 22 23 23 23 26 26 25 24 24 23 24 24 25 25 25 26 28 29 31 30 29 28 28 27 27 28 30 16 12 9 11 11 21 33 23 32 35 37 34 37 41 45 43 43 44 42 41 40 40 42 45 51 54 58
43 41 43 42 34 37 34 34 33 33 32 34 33 34 34 33 33 30 29 28 26 28 26 25 23 24 24 24 24 24 23 22 22 22 22 21 22 22 24 25 25 24 23 23 24 24 24 24 23 24 26 27 27 30 30 30 27 27 30 29 34 35 30 14 11 16 17 30 22 26 38 40 41 38 28 33 35 42 41 42 36 38 48 43 40 52 56 57